Regional Weather Roundup
Issued by NWS Goodland, KS

Home | Current Version | Previous Version | Graphics & Text | Print | Product List | Glossary On
Versions: 1 2 3 4 5 6 7 8 9 10 11 12 13 14 15 16 17 18 19 20 21 22 23 24 25 26 27 28 29 30 31 32 33 34 35 36 37 38 39 40 41 42 43 44 45 46 47 48 49 50
000
ASUS43 KGLD 231108
RWRGLD

GOODLAND FORECAST AREA HOURLY WEATHER ROUNDUP
NATIONAL WEATHER SERVICE GOODLAND KS
400 AM MST FRI FEB 23 2018

...OFFICIAL OBSERVATIONS...

CITY           SKY/WX    TMP DP  RH WIND       PRES   REMARKS
GOODLAND KS    FOG       20  20 100 S5        30.11S VSB 1/2
HILL CITY KS   FOG       22  22 100 W7        30.20F VSB 1/4
IMPERIAL NEB   CLEAR     14  12  92 SW3       30.13R
MCCOOK NEB     FOG       19  18  95 W8        30.17F VSB 1
AKRON CO       CLEAR     14  12  92 W7        30.05R FOG
BURLINGTON CO  PTCLDY    14   9  80 W7        30.08S
LIMON CO       CLEAR      4   2  91 CALM      30.02F
$$

...UNOFFICIAL OBSERVATIONS...

CITY           SKY/WX    TMP DP  RH WIND       PRES   REMARKS
COLBY KS       CLOUDY    27  27 100 W5        30.15S
NORTON KS      CLOUDY    16  12  86 W6        30.17  FOG
SHARON SPRINGS   N/A     24  22  93 CALM        N/A
TRIBUNE KS     CLOUDY    27  25  93 N6        30.13
KIT CARSON CO    N/A     13  10  87 CALM        N/A
YUMA CO        FAIR      14  12  92 SW7       30.08R
$$




USA.gov is the U.S. government's official web portal to all federal, state and local government web resources and services.